Weather History for Plymouth, NH

Change the Weather History Date:

Sunday, September 1, 2013

  Actual Average (KLCI) Record (KLCI)
Temperature  
Mean Temperature 75 °F -  
Max Temperature 82 °F 76 °F 91 °F (2010)
Min Temperature 68 °F 54 °F 41 °F (2002)
Cooling Degree Days 10    
Growing Degree Days 25 (Base 50)    
Moisture  
Dew Point 67 °F    
Average Humidity 80    
Maximum Humidity 96    
Minimum Humidity 54    
Precipitation  
Precipitation 0.00 in - - ()
Sea Level Pressure  
Sea Level Pressure 29.84 in    
Wind  
Wind Speed 1 mph (West)    
Max Wind Speed 8 mph    
Max Gust Speed -    
Visibility 8 miles    
Events Rain , Thunderstorm    
Averages and records for this station are not official NWS values.
T = Trace of Precipitation, MM = Missing Value Source: NWS Daily Summary

Daily Weather History Graph

Daily Weather History Graph

Search for Another Location

Airport:

Trip Planner

Search our weather history database for the weather conditions in past years. The results will help you decide how hot, cold, wet, or windy it might be!

Date:

Astronomy

Sep. 01, 2013 Rise Set
Actual Time 6:10 AM EDT 7:22 PM EDT
Civil Twilight 5:41 AM EDT 7:51 PM EDT
Nautical Twilight 5:05 AM EDT 8:27 PM EDT
Astronomical Twilight 4:28 AM EDT 9:04 PM EDT
Moon 2:25 AM EDT (9/1) 5:01 PM EDT (9/1)
Length of Visible Light 14h 10m
Length of Day
13h 11m
Waning Crescent, 14% of the Moon is Illuminated
Sep 1
Waning Crescent
Sep 5
New
Sep 12
First Quarter
Sep 19
Full
Sep 26
Last Quarter

Hourly Weather History & Observations

Time (EDT) Temp. Heat Index Dew Point Humidity Pressure Visibility Wind Dir Wind Speed Gust Speed Precip Events Conditions
12:15 AM 69.4 °F - 68.2 °F 96% 29.79 in 2.5 mi Calm Calm - N/A   Overcast
12:35 AM 69.8 °F - 68.4 °F 95% 29.79 in 2.5 mi Calm Calm - N/A   Overcast
12:55 AM 69.4 °F - 68.2 °F 96% 29.78 in 1.5 mi Calm Calm - N/A Thunderstorm Overcast
1:15 AM 69.3 °F - 68.0 °F 96% 29.79 in 4.0 mi Calm Calm - N/A   Overcast
1:35 AM 69.3 °F - 68.0 °F 96% 29.79 in 2.5 mi Calm Calm - N/A   Overcast
1:55 AM 69.3 °F - 68.0 °F 96% 29.78 in 2.5 mi Calm Calm - N/A   Overcast
2:15 AM 69.3 °F - 68.0 °F 96% 29.78 in 4.0 mi Calm Calm - N/A   Overcast
2:35 AM 69.3 °F - 68.0 °F 96% 29.78 in 3.0 mi Calm Calm - N/A Thunderstorm Overcast
2:55 AM 69.4 °F - 68.2 °F 96% 29.79 in 2.5 mi Calm Calm - N/A   Overcast
3:15 AM 69.4 °F - 68.2 °F 96% 29.78 in 3.0 mi Calm Calm - N/A   Overcast
3:35 AM 69.6 °F - 68.2 °F 95% 29.79 in 4.0 mi Calm Calm - N/A   Overcast
3:55 AM 69.8 °F - 68.5 °F 96% 29.79 in 4.0 mi Calm Calm - N/A   Overcast
4:15 AM 69.8 °F - 68.4 °F 95% 29.80 in 7.0 mi Calm Calm - N/A   Mostly Cloudy
4:35 AM 69.3 °F - 68.0 °F 96% 29.80 in 5.0 mi Calm Calm - N/A   Mostly Cloudy
4:55 AM 69.8 °F - 67.8 °F 93% 29.81 in 7.0 mi West 3.5 mph - N/A   Scattered Clouds
5:15 AM 69.3 °F - 67.3 °F 93% 29.81 in 5.0 mi West 3.5 mph - N/A Thunderstorm Scattered Clouds
5:35 AM 69.8 °F - 67.5 °F 92% 29.82 in 7.0 mi West 4.6 mph - N/A   Clear
5:55 AM 69.4 °F - 67.1 °F 92% 29.82 in 7.0 mi Calm Calm - N/A   Mostly Cloudy
6:15 AM 69.3 °F - 67.5 °F 94% 29.82 in 5.0 mi West 3.5 mph - N/A   Mostly Cloudy
6:35 AM 69.3 °F - 67.5 °F 94% 29.82 in 5.0 mi WSW 3.5 mph - N/A   Mostly Cloudy
6:55 AM 68.5 °F - 66.6 °F 93% 29.83 in 3.0 mi East 3.5 mph - N/A   Scattered Clouds
7:15 AM 68.9 °F - 67.5 °F 95% 29.84 in 3.0 mi Calm Calm - N/A   Scattered Clouds
7:35 AM 70.7 °F - 68.5 °F 93% 29.84 in 7.0 mi NW 3.5 mph - N/A   Scattered Clouds
7:55 AM 72.0 °F - 68.0 °F 87% 29.85 in 7.0 mi WNW 5.8 mph - N/A   Scattered Clouds
8:15 AM 73.4 °F - 68.0 °F 83% 29.86 in 10.0 mi NW 4.6 mph - N/A   Mostly Cloudy
8:35 AM 73.8 °F - 67.5 °F 81% 29.86 in 10.0 mi West 5.8 mph - N/A   Overcast
8:55 AM 74.3 °F - 67.5 °F 79% 29.86 in 10.0 mi WNW 5.8 mph - N/A   Mostly Cloudy
9:15 AM 75.4 °F - 66.7 °F 74% 29.86 in 10.0 mi WNW 5.8 mph - N/A   Scattered Clouds
9:35 AM 75.7 °F - 66.9 °F 74% 29.86 in 10.0 mi West 8.1 mph - N/A   Clear
9:55 AM 76.5 °F - 66.6 °F 71% 29.86 in 10.0 mi West 6.9 mph - N/A   Clear
10:15 AM 77.0 °F - 66.2 °F 69% 29.86 in 10.0 mi WNW 5.8 mph - N/A   Clear
10:35 AM 77.4 °F - 65.1 °F 66% 29.86 in 10.0 mi Calm Calm - N/A   Mostly Cloudy
10:55 AM 76.5 °F - 66.2 °F 70% 29.87 in 10.0 mi West 3.5 mph - N/A   Mostly Cloudy
11:15 AM 77.4 °F - 64.9 °F 65% 29.86 in 10.0 mi Calm Calm - N/A   Mostly Cloudy
11:35 AM 78.8 °F - 64.9 °F 62% 29.86 in 10.0 mi Calm Calm - N/A   Overcast
11:55 AM 79.0 °F - 63.9 °F 60% 29.86 in 10.0 mi NW 4.6 mph - N/A   Overcast
12:15 PM 78.8 °F - 64.8 °F 62% 29.86 in 10.0 mi WNW 3.5 mph - N/A   Overcast
12:35 PM 78.8 °F - 65.1 °F 63% 29.86 in 10.0 mi West 4.6 mph - N/A   Overcast
12:55 PM 78.6 °F - 63.7 °F 60% 29.86 in 10.0 mi Calm Calm - N/A   Overcast
1:15 PM 79.3 °F - 63.5 °F 58% 29.86 in 10.0 mi Calm Calm - N/A   Overcast
1:35 PM 79.9 °F - 64.4 °F 59% 29.86 in 10.0 mi West 3.5 mph - N/A   Overcast
1:55 PM 80.2 °F 81.9 °F 64.0 °F 58% 29.86 in 10.0 mi WNW 3.5 mph - N/A   Overcast
2:15 PM 80.8 °F 82.5 °F 64.8 °F 58% 29.84 in 10.0 mi Calm Calm - N/A   Overcast
2:35 PM 80.6 °F 82.3 °F 64.8 °F 58% 29.85 in 10.0 mi West 3.5 mph - N/A   Overcast
2:55 PM 81.5 °F 83.3 °F 64.8 °F 57% 29.84 in 10.0 mi SW 3.5 mph - N/A   Mostly Cloudy
3:15 PM 82.6 °F 84.3 °F 65.1 °F 55% 29.84 in 10.0 mi Calm Calm - N/A   Scattered Clouds
3:35 PM 82.8 °F 84.3 °F 64.6 °F 54% 29.84 in 10.0 mi Calm Calm - N/A   Mostly Cloudy
3:55 PM 82.6 °F 85.1 °F 67.1 °F 59% 29.84 in 10.0 mi SSE 4.6 mph - N/A   Scattered Clouds
4:15 PM 81.3 °F 84.5 °F 68.9 °F 66% 29.84 in 10.0 mi Calm Calm - N/A   Scattered Clouds
4:35 PM 82.4 °F 85.4 °F 68.2 °F 62% 29.83 in 10.0 mi Calm Calm - N/A   Scattered Clouds
4:55 PM 79.9 °F - 67.5 °F 66% 29.84 in 10.0 mi Calm Calm - N/A   Mostly Cloudy
5:15 PM 79.7 °F - 68.7 °F 69% 29.84 in 10.0 mi Calm Calm - N/A   Overcast
5:35 PM 81.1 °F 83.9 °F 68.0 °F 64% 29.84 in 10.0 mi Calm Calm - N/A   Mostly Cloudy
5:55 PM 80.8 °F 83.5 °F 68.0 °F 65% 29.84 in 10.0 mi Calm Calm - N/A   Scattered Clouds
6:15 PM 79.9 °F - 67.3 °F 65% 29.84 in 10.0 mi Calm Calm - N/A   Scattered Clouds
6:35 PM 77.5 °F - 69.1 °F 75% 29.84 in 10.0 mi Calm Calm - N/A   Scattered Clouds
6:55 PM 75.9 °F - 69.8 °F 81% 29.84 in 10.0 mi Calm Calm - N/A   Overcast
7:15 PM 75.0 °F - 71.1 °F 87% 29.85 in 10.0 mi Calm Calm - N/A   Overcast
7:35 PM 73.9 °F - 70.3 °F 88% 29.86 in 10.0 mi Calm Calm - N/A   Overcast
7:55 PM 73.8 °F - 70.2 °F 88% 29.84 in 10.0 mi Calm Calm - N/A   Overcast
8:15 PM 72.9 °F - 70.2 °F 91% 29.86 in 10.0 mi Calm Calm - N/A   Scattered Clouds
8:35 PM 71.6 °F - 69.8 °F 94% 29.87 in 5.0 mi Calm Calm - N/A   Clear
8:55 PM 71.1 °F - 69.3 °F 94% 29.87 in 7.0 mi Calm Calm - N/A Thunderstorm Mostly Cloudy
9:15 PM 72.0 °F - 69.6 °F 92% 29.88 in 10.0 mi Calm Calm - N/A   Overcast
9:35 PM 73.0 °F - 68.4 °F 85% 29.87 in 10.0 mi ESE 3.5 mph - N/A   Overcast
9:55 PM 73.4 °F - 68.0 °F 83% 29.88 in 10.0 mi Calm Calm - N/A   Overcast
10:15 PM 72.3 °F - 68.5 °F 88% 29.88 in 10.0 mi Calm Calm - N/A   Overcast
10:35 PM 72.3 °F - 68.5 °F 88% 29.89 in 10.0 mi Calm Calm - N/A Rain Light Rain
10:55 PM 71.8 °F - 68.2 °F 88% 29.89 in 10.0 mi Calm Calm - N/A   Overcast
11:15 PM 71.6 °F - 68.2 °F 89% 29.89 in 10.0 mi Calm Calm - N/A   Overcast
11:35 PM 71.4 °F - 68.4 °F 90% 29.88 in 10.0 mi Calm Calm - N/A Thunderstorm Overcast
11:55 PM 71.2 °F - 68.4 °F 91% 29.88 in 10.0 mi Calm Calm - N/A   Overcast